Radiation Dose at Monitoring Post of Fukushima Daini Nuclear Power Station
Date,Time,MP-1(microSv/h),MP-2(microSv/h),MP-3(microSv/h),MP-4(microSv/h),MP-5(microSv/h),MP-6(microSv/h),MP-7(microSv/h),Wind Direction,Wind Velocity(m/s),Rain
2017/07/22,00:00,0.359,0.221,0.370,0.351,0.327,0.181,0.110,south-southwest,9.5,No
2017/07/22,00:10,0.364,0.224,0.374,0.347,0.329,0.181,0.110,south-southwest,9.7,No
2017/07/22,00:20,0.362,0.221,0.375,0.346,0.326,0.180,0.109,south-southwest,9.4,No
2017/07/22,00:30,0.359,0.221,0.373,0.345,0.325,0.179,0.110,south-southwest,10.0,No
2017/07/22,00:40,0.365,0.223,0.371,0.350,0.329,0.181,0.109,south-southwest,8.6,No
2017/07/22,00:50,0.364,0.222,0.374,0.348,0.327,0.181,0.108,south-southwest,8.7,No
2017/07/22,01:00,0.360,0.221,0.375,0.345,0.325,0.180,0.110,south-southwest,7.9,No
2017/07/22,01:10,0.364,0.224,0.371,0.349,0.326,0.180,0.109,south-southwest,7.0,No
2017/07/22,01:20,0.365,0.222,0.369,0.349,0.330,0.181,0.108,south-southwest,7.6,No
2017/07/22,01:30,0.360,0.220,0.375,0.347,0.325,0.180,0.111,south-southwest,7.2,No
2017/07/22,01:40,0.362,0.222,0.372,0.347,0.324,0.179,0.110,south-southwest,7.2,No
2017/07/22,01:50,0.365,0.222,0.371,0.349,0.329,0.181,0.108,south-southwest,7.3,No
2017/07/22,02:00,0.361,0.221,0.373,0.348,0.328,0.180,0.110,south-southwest,8.1,No
2017/07/22,02:10,0.361,0.222,0.375,0.347,0.324,0.180,0.109,south-southwest,7.5,No
2017/07/22,02:20,0.364,0.222,0.372,0.350,0.329,0.180,0.109,south-southwest,8.4,No
2017/07/22,02:30,0.361,0.222,0.370,0.348,0.328,0.180,0.110,south-southwest,8.2,No
2017/07/22,02:40,0.361,0.223,0.375,0.345,0.325,0.180,0.109,south-southwest,7.5,No
2017/07/22,02:50,0.364,0.221,0.374,0.351,0.326,0.181,0.110,south-southwest,6.5,No
2017/07/22,03:00,0.362,0.222,0.370,0.349,0.329,0.181,0.110,south-southwest,7.5,No
2017/07/22,03:10,0.361,0.223,0.375,0.345,0.325,0.180,0.109,south-southwest,7.2,No
2017/07/22,03:20,0.365,0.220,0.376,0.349,0.326,0.180,0.110,south-southwest,7.0,No
2017/07/22,03:30,0.361,0.223,0.372,0.349,0.329,0.181,0.110,south-southwest,6.9,No
2017/07/22,03:40,0.362,0.224,0.374,0.345,0.327,0.179,0.109,south-southwest,6.1,No
2017/07/22,03:50,0.366,0.221,0.374,0.349,0.325,0.182,0.110,south-southwest,6.2,No
2017/07/22,04:00,0.362,0.223,0.373,0.348,0.328,0.182,0.109,south-southwest,6.7,No
2017/07/22,04:10,0.360,0.223,0.371,0.346,0.326,0.180,0.109,south-southwest,6.1,No
2017/07/22,04:20,0.365,0.220,0.375,0.348,0.326,0.181,0.109,south-southwest,5.7,No
2017/07/22,04:30,0.362,0.223,0.373,0.349,0.327,0.181,0.109,south-southwest,6.9,No
2017/07/22,04:40,0.360,0.223,0.371,0.347,0.327,0.180,0.110,south-southwest,6.3,No
2017/07/22,04:50,0.365,0.221,0.375,0.346,0.325,0.180,0.110,south-southwest,5.9,No
2017/07/22,05:00,0.361,0.224,0.375,0.350,0.326,0.181,0.110,south-southwest,5.2,No
2017/07/22,05:10,0.360,0.223,0.372,0.347,0.330,0.181,0.110,south-southwest,5.0,No
2017/07/22,05:20,0.365,0.222,0.373,0.346,0.326,0.180,0.110,south-southwest,4.7,No
2017/07/22,05:30,0.362,0.222,0.376,0.351,0.324,0.181,0.109,south-southwest,5.3,No
2017/07/22,05:40,0.360,0.224,0.372,0.348,0.327,0.180,0.110,south-southwest,5.1,No
2017/07/22,05:50,0.366,0.223,0.371,0.344,0.328,0.181,0.110,south-southwest,4.4,No
2017/07/22,06:00,0.363,0.222,0.377,0.348,0.327,0.180,0.110,south,4.7,No
2017/07/22,06:10,0.361,0.219,0.375,0.348,0.324,0.181,0.109,south,5.1,No
2017/07/22,06:20,0.362,0.221,0.371,0.346,0.323,0.180,0.110,south-southwest,4.7,No
2017/07/22,06:30,0.363,0.223,0.370,0.345,0.326,0.180,0.109,south-southwest,4.4,No
2017/07/22,06:40,0.363,0.223,0.376,0.350,0.329,0.182,0.109,south-southwest,4.4,No
2017/07/22,06:50,0.359,0.221,0.374,0.349,0.327,0.181,0.110,south-southwest,4.0,No
2017/07/22,07:00,0.359,0.221,0.373,0.347,0.326,0.180,0.110,south,3.9,No
2017/07/22,07:10,0.365,0.220,0.371,0.346,0.324,0.180,0.109,south,5.3,No
2017/07/22,07:20,0.365,0.221,0.370,0.343,0.324,0.180,0.109,south,5.4,No
2017/07/22,07:30,0.362,0.221,0.369,0.349,0.324,0.181,0.109,south,5.0,No
2017/07/22,07:40,0.362,0.222,0.370,0.351,0.324,0.182,0.110,south,5.1,No
2017/07/22,07:50,0.358,0.222,0.371,0.350,0.323,0.180,0.109,south,4.7,No
2017/07/22,08:00,0.360,0.222,0.371,0.347,0.325,0.180,0.110,south,5.6,No
2017/07/22,08:10,0.360,0.221,0.373,0.348,0.325,0.181,0.109,south,6.3,No
2017/07/22,08:20,0.360,0.222,0.371,0.347,0.327,0.181,0.108,south,6.5,No
2017/07/22,08:30,0.366,0.222,0.370,0.346,0.325,0.180,0.109,south,6.0,No
2017/07/22,08:40,0.366,0.222,0.371,0.346,0.326,0.181,0.110,south,6.7,No
2017/07/22,08:50,0.364,0.221,0.370,0.346,0.326,0.180,0.110,south-southwest,6.1,No
2017/07/22,09:00,0.362,0.222,0.371,0.346,0.326,0.181,0.110,south,6.7,No
2017/07/22,09:10,0.361,0.221,0.372,0.346,0.327,0.180,0.110,south,7.8,No
2017/07/22,09:20,0.360,0.222,0.374,0.347,0.326,0.182,0.109,south,7.7,No
2017/07/22,09:30,0.361,0.222,0.372,0.345,0.326,0.181,0.109,south,7.0,No
2017/07/22,09:40,0.360,0.222,0.372,0.345,0.326,0.182,0.109,south,7.4,No
2017/07/22,09:50,0.360,0.223,0.373,0.346,0.327,0.182,0.109,south,7.0,No
2017/07/22,10:00,0.362,0.222,0.371,0.348,0.329,0.181,0.109,south,6.1,No
2017/07/22,10:10,0.363,0.223,0.373,0.351,0.330,0.182,0.110,south,7.0,No
2017/07/22,10:20,0.362,0.224,0.373,0.350,0.330,0.183,0.109,south,6.0,No
2017/07/22,10:30,0.362,0.223,0.373,0.350,0.328,0.181,0.110,south,6.8,No
2017/07/22,10:40,0.365,0.223,0.374,0.350,0.328,0.181,0.110,south,7.3,No
2017/07/22,10:50,0.363,0.224,0.375,0.351,0.328,0.182,0.110,south,8.4,No
2017/07/22,11:00,0.363,0.223,0.376,0.350,0.327,0.180,0.111,south,8.1,No
2017/07/22,11:10,0.366,0.224,0.376,0.350,0.329,0.182,0.111,south,8.1,No
2017/07/22,11:20,0.366,0.223,0.376,0.348,0.328,0.181,0.111,south,7.9,No
2017/07/22,11:30,0.363,0.224,0.375,0.350,0.328,0.181,0.111,south,9.2,No
2017/07/22,11:40,0.363,0.223,0.374,0.349,0.327,0.182,0.111,south,9.2,No
2017/07/22,11:50,0.361,0.223,0.375,0.349,0.327,0.181,0.111,south,10.0,No
2017/07/22,12:00,0.363,0.223,0.372,0.347,0.325,0.181,0.110,south,10.4,No
2017/07/22,12:10,0.364,0.223,0.373,0.345,0.325,0.181,0.111,south-southwest,9.8,No
2017/07/22,12:20,0.363,0.223,0.372,0.346,0.326,0.181,0.111,south,9.7,No
2017/07/22,12:30,0.363,0.222,0.373,0.347,0.327,0.180,0.110,south,11.2,No
2017/07/22,12:40,0.362,0.222,0.373,0.348,0.327,0.181,0.111,south,9.9,No
2017/07/22,12:50,0.364,0.223,0.373,0.347,0.328,0.180,0.111,south,9.5,No
2017/07/22,13:00,0.362,0.223,0.374,0.348,0.327,0.181,0.111,south,10.2,No
2017/07/22,13:10,0.362,0.223,0.375,0.349,0.328,0.181,0.111,south-southwest,11.5,No
2017/07/22,13:20,0.361,0.224,0.375,0.348,0.327,0.181,0.110,south,10.4,No
2017/07/22,13:30,0.362,0.223,0.376,0.349,0.326,0.180,0.109,south,10.8,No
2017/07/22,13:40,0.361,0.222,0.373,0.348,0.328,0.179,0.109,south,11.4,Yes
2017/07/22,13:50,0.363,0.223,0.373,0.349,0.326,0.181,0.110,south,12.2,Yes
2017/07/22,14:00,0.360,0.223,0.374,0.348,0.328,0.181,0.110,south,12.9,No
2017/07/22,14:10,0.362,0.223,0.372,0.348,0.328,0.181,0.109,south,12.1,No
2017/07/22,14:20,0.363,0.222,0.372,0.349,0.326,0.182,0.109,south,12.6,No
2017/07/22,14:30,0.361,0.224,0.373,0.350,0.329,0.182,0.110,south,11.3,No
2017/07/22,14:40,0.363,0.223,0.374,0.349,0.329,0.183,0.110,south,11.8,No
2017/07/22,14:50,0.362,0.223,0.374,0.348,0.328,0.182,0.110,south-southwest,11.2,No
2017/07/22,15:00,0.363,0.223,0.372,0.348,0.326,0.182,0.109,south-southwest,10.6,No
2017/07/22,15:10,0.361,0.223,0.374,0.348,0.327,0.181,0.109,south-southwest,6.4,No
2017/07/22,15:20,0.361,0.223,0.372,0.346,0.325,0.181,0.110,west-southwest,4.8,No
2017/07/22,15:30,0.367,0.223,0.371,0.347,0.325,0.182,0.110,west-northwest,1.6,Yes
2017/07/22,15:40,0.366,0.224,0.369,0.345,0.323,0.185,0.116,north-northwest,2.3,Yes
2017/07/22,15:50,0.365,0.227,0.376,0.352,0.328,0.186,0.118,north,3.5,Yes
2017/07/22,16:00,0.363,0.228,0.377,0.351,0.331,0.187,0.117,north-northwest,0.7,Yes
2017/07/22,16:10,0.369,0.226,0.373,0.348,0.329,0.185,0.117,southeast,0.7,No
2017/07/22,16:20,0.367,0.225,0.371,0.350,0.326,0.186,0.116,south,1.7,No
2017/07/22,16:30,0.362,0.228,0.374,0.349,0.329,0.184,0.115,south-southwest,3.1,No
2017/07/22,16:40,0.362,0.226,0.372,0.347,0.329,0.183,0.115,south,3.1,No
2017/07/22,16:50,0.366,0.222,0.368,0.345,0.324,0.182,0.115,south-southwest,2.4,No
2017/07/22,17:00,0.363,0.222,0.371,0.347,0.324,0.182,0.114,south-southwest,3.4,No
2017/07/22,17:10,0.360,0.224,0.372,0.346,0.330,0.183,0.112,south-southwest,4.3,No
2017/07/22,17:20,0.358,0.224,0.369,0.344,0.327,0.181,0.111,south-southwest,5.4,No
2017/07/22,17:30,0.362,0.221,0.365,0.341,0.325,0.180,0.112,south-southwest,4.2,No
2017/07/22,17:40,0.362,0.218,0.366,0.344,0.322,0.179,0.111,south,3.7,No
2017/07/22,17:50,0.359,0.218,0.370,0.344,0.320,0.179,0.110,south,3.3,No
2017/07/22,18:00,0.357,0.221,0.368,0.345,0.326,0.180,0.110,south-southwest,4.0,No
2017/07/22,18:10,0.360,0.221,0.363,0.340,0.325,0.179,0.111,south-southwest,4.5,No
2017/07/22,18:20,0.362,0.219,0.365,0.342,0.323,0.177,0.109,south-southwest,4.8,No
2017/07/22,18:30,0.358,0.218,0.370,0.345,0.321,0.178,0.109,south-southwest,5.3,No
2017/07/22,18:40,0.357,0.219,0.368,0.342,0.323,0.179,0.110,south-southwest,4.6,No
2017/07/22,18:50,0.362,0.220,0.364,0.342,0.326,0.180,0.110,south-southwest,6.1,No
2017/07/22,19:00,0.363,0.219,0.363,0.343,0.324,0.178,0.108,south-southwest,4.1,No
2017/07/22,19:10,0.357,0.219,0.370,0.344,0.322,0.177,0.110,south-southwest,5.1,No
2017/07/22,19:20,0.358,0.221,0.367,0.342,0.323,0.178,0.110,south-southwest,5.1,No
2017/07/22,19:30,0.363,0.220,0.365,0.342,0.326,0.178,0.108,south-southwest,5.8,No
2017/07/22,19:40,0.360,0.217,0.366,0.344,0.323,0.176,0.109,south-southwest,6.3,No
2017/07/22,19:50,0.358,0.220,0.368,0.345,0.322,0.178,0.110,south-southwest,5.6,No
2017/07/22,20:00,0.360,0.221,0.365,0.343,0.324,0.179,0.109,south-southwest,5.2,No
2017/07/22,20:10,0.361,0.218,0.364,0.340,0.327,0.177,0.110,south-southwest,5.1,No
2017/07/22,20:20,0.361,0.219,0.368,0.345,0.322,0.178,0.110,south-southwest,6.0,No
2017/07/22,20:30,0.356,0.220,0.368,0.344,0.320,0.179,0.109,south-southwest,7.2,No
2017/07/22,20:40,0.361,0.218,0.366,0.342,0.325,0.178,0.109,south-southwest,7.0,No
2017/07/22,20:50,0.363,0.218,0.364,0.341,0.325,0.177,0.110,south-southwest,6.5,No
2017/07/22,21:00,0.358,0.221,0.369,0.346,0.323,0.179,0.109,south-southwest,6.8,No
2017/07/22,21:10,0.359,0.220,0.367,0.344,0.321,0.179,0.110,south-southwest,6.5,No
2017/07/22,21:20,0.362,0.218,0.363,0.340,0.326,0.177,0.110,south-southwest,7.3,No
2017/07/22,21:30,0.360,0.219,0.367,0.346,0.325,0.178,0.109,south-southwest,7.3,No
2017/07/22,21:40,0.357,0.219,0.369,0.346,0.322,0.180,0.108,south-southwest,7.3,No
2017/07/22,21:50,0.362,0.219,0.367,0.342,0.321,0.178,0.110,south-southwest,6.2,No
2017/07/22,22:00,0.361,0.220,0.363,0.343,0.327,0.178,0.110,south-southwest,5.8,No
2017/07/22,22:10,0.357,0.221,0.368,0.345,0.324,0.179,0.110,south-southwest,5.0,No
2017/07/22,22:20,0.360,0.219,0.368,0.343,0.322,0.178,0.110,south-southwest,5.6,No
2017/07/22,22:30,0.361,0.219,0.365,0.341,0.322,0.177,0.110,south-southwest,5.3,No
2017/07/22,22:40,0.360,0.221,0.366,0.345,0.326,0.179,0.109,south-southwest,5.5,No
2017/07/22,22:50,0.361,0.221,0.369,0.345,0.323,0.179,0.110,south-southwest,5.5,No
2017/07/22,23:00,0.361,0.218,0.366,0.342,0.321,0.179,0.110,south-southwest,6.5,No
2017/07/22,23:10,0.360,0.220,0.364,0.343,0.325,0.178,0.110,south-southwest,5.8,No
2017/07/22,23:20,0.359,0.219,0.369,0.346,0.326,0.179,0.110,south-southwest,5.5,No
2017/07/22,23:30,0.363,0.219,0.367,0.342,0.323,0.178,0.111,south-southwest,7.4,No
2017/07/22,23:40,0.360,0.221,0.364,0.342,0.323,0.179,0.110,south-southwest,7.3,No
2017/07/22,23:50,0.358,0.220,0.366,0.344,0.326,0.178,0.110,south-southwest,6.5,No
